Location: *
(43.9900°N, 3.4811°E)
Time: 03:59:03
(UTC+00:00)

Cosmos 923 Rocket - Pass Details

Date: 25 August 2019
Orbit: 758 x 786 km, 74.0° (Epoch: 15 September)

Event Time Altitude Azimuth Distance (km) Brightness Sun altitude
Rises 19:27:12 0° 338° (NNW) 3,284 8.1 -9.7°
Reaches altitude 10° 19:29:37 10° 337° (NNW) 2,350 7.3 -10.0°
Maximum altitude 19:34:57 78° 252° (WSW) 801 4.2 -10.9°
Drops below altitude 10° 19:40:13 10° 166° (SSE) 2,318 6.1 -11.8°
Enters shadow 19:41:35 - 166° (SSE) 2,849 6.6 -12.0°
